Weather History for Kinloss, United Kingdom

Change the Weather History Date:

Monday, October 1, 2012

  Actual Average Record
Temperature  
Mean Temperature 54 °F -  
Max Temperature 59 °F 55 °F 66 °F (2002)
Min Temperature 48 °F 43 °F 37 °F (2003)
Degree Days  
Heating Degree Days 12    
Growing Degree Days 4 (Base 50)    
Moisture  
Dew Point 43 °F    
Average Humidity 67    
Maximum Humidity 82    
Minimum Humidity 52    
Precipitation  
Precipitation 0.00 in 0.07 in - ()
Sea Level Pressure  
Sea Level Pressure 29.45 in    
Wind  
Wind Speed 10 mph ()    
Max Wind Speed 16 mph    
Max Gust Speed 36 mph    
Visibility 6.2 miles    
Events Rain    
Averages and records for this station are not official NWS values.
T = Trace of Precipitation, MM = Missing Value Source: Averaged Metar Reports

Daily Weather History Graph

Daily Weather History Graph

Search for Another Location

Airport:

Trip Planner

Search our weather history database for the weather conditions in past years. The results will help you decide how hot, cold, wet, or windy it might be!

Date:

Astronomy

Oct. 01, 2012 Rise Set
Actual Time 7:18 AM BST 6:47 PM BST
Civil Twilight 6:40 AM BST 7:26 PM BST
Nautical Twilight 5:54 AM BST 8:11 PM BST
Astronomical Twilight 5:07 AM BST 8:58 PM BST
Moon 6:44 PM BST (10/1) 9:02 AM BST (10/1)
Length of Visible Light 12h 45m
Length of Day
11h 28m
Full, 98% of the Moon is Illuminated
Oct 1
Full
Oct 8
Last Quarter
Oct 15
New
Oct 22
First Quarter
Oct 29
Full

Hourly Weather History & Observations

Time (BST) Temp. Dew Point Humidity Pressure Visibility Wind Dir Wind Speed Gust Speed Precip Events Conditions
12:50 AM 53 °F 44 °F 62% 29.49 in 25 mi SSW 13.8 mph - -   Partly Cloudy
12:50 AM 53.6 °F 44.6 °F 72% 29.47 in 6.2 mi SSW 13.8 mph - N/A   Scattered Clouds
1:50 AM 51.8 °F 42.8 °F 71% 29.47 in 6.2 mi SW 12.7 mph - N/A   Partly Cloudy
2:50 AM 51.8 °F 42.8 °F 71% 29.47 in 6.2 mi SSW 13.8 mph - N/A   Partly Cloudy
3:50 AM 52 °F 43 °F 64% 29.48 in 25 mi SSW 10.4 mph - -   Mostly Cloudy
3:50 AM 51.8 °F 42.8 °F 71% 29.47 in 6.2 mi SSW 10.4 mph - N/A   Mostly Cloudy
4:50 AM 51.8 °F 42.8 °F 71% 29.47 in 6.2 mi SW 11.5 mph - N/A   Partly Cloudy
5:50 AM 48.2 °F 42.8 °F 82% 29.47 in 6.2 mi SW 8.1 mph - N/A   Mostly Cloudy
6:50 AM 49 °F 41 °F 66% 29.49 in 22 mi SSW 5.8 mph - -  
6:50 AM 48.2 °F 41.0 °F 76% 29.47 in 6.2 mi SSW 5.8 mph - N/A   Partly Cloudy
7:50 AM 50.0 °F 41.0 °F 71% 29.47 in - SSW 10.4 mph - N/A   Clear
8:50 AM 53.6 °F 42.8 °F 67% 29.47 in - SSW 12.7 mph - N/A   Clear
9:50 AM 54 °F 43 °F 57% 29.49 in 25 mi SW 11.5 mph - -   Scattered Clouds
9:50 AM 55.4 °F 42.8 °F 63% 29.47 in - SW 11.5 mph - N/A   Clear
11:50 AM 57.2 °F 42.8 °F 59% 29.47 in 6.2 mi SW 15.0 mph - N/A   Scattered Clouds
12:50 PM 56 °F 45 °F 57% 29.49 in 28 mi SW 13.8 mph - -   Scattered Clouds
12:50 PM 55.4 °F 44.6 °F 67% 29.47 in 6.2 mi SW 13.8 mph - N/A   Mostly Cloudy
1:50 PM 57.2 °F 41.0 °F 55% 29.44 in 6.2 mi SW 16.1 mph 35.7 mph N/A   Scattered Clouds
2:54 PM 57.2 °F 42.8 °F 59% 29.44 in 6.2 mi SSW 16.1 mph - N/A   Mostly Cloudy
3:50 PM 56 °F 43 °F 52% 29.44 in 31 mi SSW 12.7 mph - -   Scattered Clouds
3:50 PM 57.2 °F 42.8 °F 59% 29.42 in 6.2 mi SSW 12.7 mph - N/A   Mostly Cloudy
4:50 PM 55.4 °F 44.6 °F 67% 29.42 in 6.2 mi SSW 13.8 mph - N/A   Mostly Cloudy
5:50 PM 55.4 °F 44.6 °F 67% 29.42 in 6.2 mi SSW 11.5 mph 23.0 mph N/A   Mostly Cloudy
6:50 PM 52 °F 44 °F 66% 29.42 in 31 mi South 5.8 mph - - Rain Rain
6:50 PM 51.8 °F 44.6 °F 76% 29.42 in 6.2 mi South 5.8 mph - N/A   Mostly Cloudy
7:50 PM 50.0 °F 41.0 °F 71% 29.42 in 6.2 mi SW 8.1 mph - N/A   Mostly Cloudy
8:50 PM 48.2 °F 41.0 °F 76% 29.42 in 6.2 mi SSW 10.4 mph - N/A   Mostly Cloudy
9:50 PM 49 °F 41 °F 66% 29.42 in 31 mi SSW 9.2 mph - -  
9:50 PM 48.2 °F 41.0 °F 76% 29.42 in 6.2 mi SSW 9.2 mph - N/A   Mostly Cloudy
10:50 PM 48.2 °F 41.0 °F 76% 29.42 in 6.2 mi SSW 9.2 mph - N/A   Mostly Cloudy
11:50 PM 48.2 °F 41.0 °F 76% 29.42 in 6.2 mi SSW 9.2 mph - N/A   Mostly Cloudy